Regional Weather Roundup
Issued by NWS

Home | Current Version | Previous Version | Text Only | Print | Product List | Glossary On
Versions: 1 2 3 4 5 6 7 8 9 10 11 12 13 14 15 16 17 18 19 20 21 22 23 24 25 26 27 28 29 30 31 32 33 34 35 36 37 38 39 40 41 42 43 44 45 46 47 48 49 50
000
ASCA44 KEWX 280120
RWRMX

LATIN AMERICA AND CARIBBEAN REGIONAL WEATHER ROUNDUP
NATIONAL WEATHER SERVICE AUSTIN/SAN ANTONIO TX
800 PM CDT WED AUG 27 2014

NOTE: "FAIR" INDICATED FEW OR NO CLOUDS BELOW 12,000 FEET WITH NO
SIGNIFICANT WEATHER AND/OR OBSTRUCTIONS TO VISIBILITY.

BAJA CALIFORNIA

CITY           SKY/WX    TMP DP  RH WIND       PRES   REMARKS
LORETO         MOSUNNY   91  73  55 NE22      29.80F HX 100
LA PAZ         PTCLDY    91  70  49 NW7       29.85  HX  97
MEXICALI       SUNNY    104  43  12 CALM      29.83  HX  99
S.J. DEL CABO  MOCLDY    86  72  62 SE8       29.86R HX  92
TIJUANA        SUNNY     86  41  20 W10       30.00F

NORTHWESTERN MEXICO

CITY           SKY/WX    TMP DP  RH WIND       PRES   REMARKS
CULIACAN       MOCLDY    95  75  52 NW14      29.80  HX 107
DURANGO        PTCLDY    81  41  24 NE12      30.20R
GUAYMAS        MOSUNNY   99  75  47 SW12      29.75  HX 111
HERMOSILLO     MOSUNNY  104  63  25 S7        29.84  HX 106
CD. JUAREZ     MOCLDY    86  63  45 S5        30.07
LOS MOCHIS     PTCLDY    93  70  46 NW15      29.80R HX  99
OBREGON        CLEAR     97  70  41 W12       29.77  HX 103

NORTHEASTERN MEXICO

CITY           SKY/WX    TMP DP  RH WIND       PRES   REMARKS
CHIHUAHUA      MOCLDY    84  54  34 NW8       30.14
MATAMOROS      CLEAR     88  77  70 N14       29.88  HX 100
MONCLOVA       PTCLDY    91  61  35 NE12      29.91S HX  91
MONTERREY      MOCLDY    91  59  33 CALM      29.91R HX  90
NUEVO LAREDO   PTCLDY    99  66  34 E6        29.86  HX 102
REYNOSA        PTCLDY    90  64  43 NE14      29.85  HX  91
SALTILLO       CLEAR     79  63  57 N17       30.16R
TORREON        PTCLDY    91  43  18 CALM      30.03F
CD. VICTORIA   PTCLDY    91  66  43 E14       29.87  HX  94

WESTERN MEXICO

CITY           SKY/WX    TMP DP  RH WIND       PRES   REMARKS
AGUASCALIENTES CLEAR     77  41  27 NE6       30.20
COLIMA         MOCLDY    77  75  94 W14       29.94R
DEL BAJIO      PTCLDY    77  50  38 NE6       30.22R
GUADALAJARA    PTCLDY    82  54  36 NE7       30.11
MANZANILLO     PTCLDY    88  77  70 S7        29.76R HX 100
MAZATLAN       MOCLDY    86  75  70 W13       29.76R HX  95
P. VALLARTA    MOCLDY    88  77  70 S7        29.80R HX 100
ZACATECAS      MOCLDY    75  41  29 NE12      30.25S

CENTRAL MEXICO

CITY           SKY/WX    TMP DP  RH WIND       PRES   REMARKS
CUERNAVACA     MOCLDY    79  52  38 CALM      30.05R
MEXICO CITY    MOCLDY    73  50  43 NE16      30.27R
MORELIA        PTCLDY    75  54  46 N6        30.16
POZA RICA      MOCLDY    86  73  66 E8        29.92R HX  93
PUEBLA         MOCLDY    66  55  68 NE6       30.30R
QUERETARO      MOCLDY    75  50  41 NE18      30.23F
S. LUIS POTOSI MOCLDY    77  41  27 E12       30.21R
TAMPICO        PTCLDY    84  75  74 E9        29.87R HX  92
TOLUCA         MOCLDY    64  43  45 NE9       30.34R

SOUTHERN MEXICO

CITY           SKY/WX    TMP DP  RH WIND       PRES   REMARKS
ACAPULCO       PTCLDY    86  79  79 W6        29.80R HX  99
OAXACA         CLOUDY    75  50  41 SE8       30.13R
VERACRUZ       PTCLDY    82  75  78 NE3       29.90R
ZIHUATANEJO    MOCLDY    90  75  62 S6        29.81R HX 100

YUCATAN PENINSULA

CITY           SKY/WX    TMP DP  RH WIND       PRES   REMARKS
CAMPECHE       MOCLDY    86  79  79 N12G23    29.83R HX  99
CANCUN         PTCLDY    82  75  78 NE3       29.88R
CHETUMAL       MOCLDY    86  77  74 E12       29.84R HX  97
CD. DEL CARMEN MOCLDY    84  77  79 N12       29.88  HX  94
COZUMEL        MOCLDY    77  75  94 CALM      29.88R
MERIDA         PTCLDY    84  73  70 N7        29.86R HX  91
MINATITLAN     PTCLDY    84  73  70 N9        29.87  HX  91
TAPACHULA      MOCLDY    79  75  89 E7        29.87R
TUX. GUTIERREZ PTCLDY    82  68  61 NW9       29.89R
VILLAHERMOSA   MOCLDY    84  73  70 N7        29.89R HX  91

CENTRAL AMERICA

CITY           SKY/WX    TMP DP  RH WIND       PRES   REMARKS
MANAGUA        PTCLDY    82  73  74 CALM      29.83R

CARIBBEAN

CITY           SKY/WX    TMP DP  RH WIND       PRES   REMARKS
ARUBA          PTCLDY    82  75  78 E17       29.86F
KINGSTON       PTCLDY    84  77  79 E13       29.94R HX  94
NASSAU         MOCLDY    86  75  70 S5        29.98R HX  95
SAN JUAN       PTCLDY    84  77  79 NE14      30.03R HX  94
SANTO DOMINGO  PTCLDY    82  75  78 E6        29.97S
ST. KITTS      LGT RAIN  79  77  94 E21       30.03R

$$




USA.gov is the U.S. government's official web portal to all federal, state and local government web resources and services.